Weather History for Tahlequah, OK

Change the Weather History Date:

Saturday, November 26, 2011

  Actual Average (KMKO) Record (KMKO)
Temperature  
Mean Temperature 50 °F -  
Max Temperature 59 °F 55 °F 71 °F (1998)
Min Temperature 41 °F 35 °F 21 °F (2010)
Degree Days  
Heating Degree Days 15    
Moisture  
Dew Point 48 °F    
Average Humidity 94    
Maximum Humidity 100    
Minimum Humidity 77    
Precipitation  
Precipitation 0.44 in - - ()
Sea Level Pressure  
Sea Level Pressure 29.91 in    
Wind  
Wind Speed 11 mph (West)    
Max Wind Speed 23 mph    
Max Gust Speed 34 mph    
Visibility 8 miles    
Events      
Averages and records for this station are not official NWS values.
T = Trace of Precipitation, MM = Missing Value Source: NWS Daily Summary

Daily Weather History Graph

Daily Weather History Graph

Search for Another Location

Airport:

Trip Planner

Search our weather history database for the weather conditions in past years. The results will help you decide how hot, cold, wet, or windy it might be!

Date:

Astronomy

Nov. 26, 2011 Rise Set
Actual Time 7:07 AM CST 5:07 PM CST
Civil Twilight 6:39 AM CST 5:35 PM CST
Nautical Twilight 6:07 AM CST 6:06 PM CST
Astronomical Twilight 5:36 AM CST 6:37 PM CST
Moon 8:36 AM CST (11/26) 6:41 PM CST (11/26)
Length of Visible Light 10h 55m
Length of Day
10h 00m
Waxing Crescent, 3% of the Moon is Illuminated
Nov 26
Waxing Crescent
Dec 2
First Quarter
Dec 10
Full
Dec 17
Last Quarter
Dec 24
New

Hourly Weather History & Observations

Time (CST) Temp. Windchill Dew Point Humidity Pressure Visibility Wind Dir Wind Speed Gust Speed Precip Events Conditions
12:35 AM 55.4 °F - 51.8 °F 88% 29.87 in 10.0 mi SSE 8.1 mph - N/A   Overcast
12:55 AM 55.4 °F - 51.8 °F 88% 29.86 in 10.0 mi SSE 8.1 mph - N/A   Overcast
1:15 AM 55.4 °F - 51.8 °F 88% 29.85 in 10.0 mi SE 5.8 mph - N/A   Overcast
1:35 AM 55.4 °F - 51.8 °F 88% 29.84 in 10.0 mi SE 4.6 mph - N/A   Mostly Cloudy
1:55 AM 55.4 °F - 51.8 °F 88% 29.83 in 10.0 mi SE 4.6 mph - N/A   Scattered Clouds
2:15 AM 55.4 °F - 51.8 °F 88% 29.83 in 10.0 mi SE 8.1 mph - N/A   Mostly Cloudy
2:35 AM 55.4 °F - 51.8 °F 88% 29.83 in 10.0 mi SSE 8.1 mph - N/A   Mostly Cloudy
2:55 AM 57.2 °F - 51.8 °F 82% 29.82 in 10.0 mi SSE 10.4 mph 17.3 mph N/A   Mostly Cloudy
3:15 AM 57.2 °F - 53.6 °F 88% 29.83 in 10.0 mi SSE 13.8 mph 18.4 mph N/A   Mostly Cloudy
3:35 AM 59.0 °F - 53.6 °F 82% 29.83 in 10.0 mi SSE 13.8 mph 18.4 mph N/A   Mostly Cloudy
4:15 AM 59.0 °F - 51.8 °F 77% 29.82 in 10.0 mi SSE 12.7 mph 18.4 mph N/A   Overcast
4:35 AM 59.0 °F - 53.6 °F 82% 29.81 in 7.0 mi SSE 12.7 mph 19.6 mph N/A   Overcast
4:55 AM 55.4 °F - 53.6 °F 94% 29.82 in 4.0 mi South 10.4 mph 17.3 mph 0.01 in   Overcast
5:15 AM 53.6 °F - 53.6 °F 100% 29.81 in 5.0 mi SSE 10.4 mph - 0.02 in   Overcast
5:35 AM 53.6 °F - 53.6 °F 100% 29.81 in 5.0 mi SSE 12.7 mph 18.4 mph 0.03 in   Overcast
5:55 AM 53.6 °F - 53.6 °F 100% 29.81 in 7.0 mi SSE 8.1 mph - 0.04 in   Overcast
6:15 AM 53.6 °F - 53.6 °F 100% 29.80 in 7.0 mi SSE 6.9 mph - 0.01 in   Mostly Cloudy
6:35 AM 53.6 °F - 53.6 °F 100% 29.82 in 5.0 mi SSE 5.8 mph - 0.03 in   Mostly Cloudy
6:55 AM 53.6 °F - 53.6 °F 100% 29.82 in 4.0 mi SSE 8.1 mph - 0.07 in   Overcast
7:15 AM 53.6 °F - 53.6 °F 100% 29.82 in 4.0 mi SSE 8.1 mph - 0.05 in   Overcast
7:35 AM 53.6 °F - 53.6 °F 100% 29.82 in 4.0 mi SSE 12.7 mph - 0.08 in   Overcast
7:55 AM 53.6 °F - 53.6 °F 100% 29.82 in 3.0 mi SSE 9.2 mph - 0.12 in   Overcast
8:35 AM 53.6 °F - 53.6 °F 100% 29.82 in 4.0 mi SSE 13.8 mph 19.6 mph 0.07 in   Overcast
8:55 AM 55.4 °F - 55.4 °F 100% 29.83 in 10.0 mi SSE 11.5 mph - 0.07 in   Overcast
9:15 AM 55.4 °F - 55.4 °F 100% 29.82 in 10.0 mi SSE 10.4 mph 16.1 mph N/A   Overcast
9:35 AM 55.4 °F - 55.4 °F 100% 29.82 in 10.0 mi SSE 11.5 mph 16.1 mph N/A   Overcast
9:55 AM 55.4 °F - 55.4 °F 100% 29.82 in 10.0 mi SSE 11.5 mph - N/A   Mostly Cloudy
10:15 AM 55.4 °F - 55.4 °F 100% 29.82 in 10.0 mi South 13.8 mph 18.4 mph 0.01 in   Mostly Cloudy
10:35 AM 55.4 °F - 55.4 °F 100% 29.85 in 10.0 mi WNW 18.4 mph 25.3 mph 0.01 in   Overcast
10:55 AM 50.0 °F - 50.0 °F 100% 29.87 in 2.0 mi NW 19.6 mph 25.3 mph 0.11 in   Overcast
11:15 AM 50.0 °F - 50.0 °F 100% 29.87 in 5.0 mi NW 16.1 mph 24.2 mph 0.01 in   Overcast
11:35 AM 50.0 °F - 50.0 °F 100% 29.87 in 10.0 mi NNW 19.6 mph 25.3 mph 0.01 in   Mostly Cloudy
11:55 AM 50.0 °F - 50.0 °F 100% 29.87 in 7.0 mi NNW 16.1 mph 27.6 mph 0.01 in   Overcast
12:15 PM 50.0 °F - 50.0 °F 100% 29.87 in 7.0 mi NNW 15.0 mph 23.0 mph N/A   Mostly Cloudy
12:35 PM 46.4 °F 38.3 °F 46.4 °F 100% 29.89 in 10.0 mi NW 23.0 mph 34.5 mph 0.01 in   Overcast
12:55 PM 46.4 °F 39.5 °F 46.4 °F 100% 29.90 in 10.0 mi NW 17.3 mph 21.9 mph 0.01 in   Overcast
1:15 PM 44.6 °F 37.8 °F 44.6 °F 100% 29.93 in 10.0 mi WNW 15.0 mph 23.0 mph N/A   Overcast
1:35 PM 44.6 °F 36.9 °F 42.8 °F 93% 29.93 in 10.0 mi NW 18.4 mph 26.5 mph N/A   Overcast
1:55 PM 42.8 °F 34.8 °F 42.8 °F 100% 29.93 in 10.0 mi NNW 17.3 mph 26.5 mph N/A   Overcast
2:15 PM 42.8 °F 33.5 °F 42.8 °F 100% 29.93 in 10.0 mi NNW 23.0 mph 27.6 mph N/A   Overcast
2:35 PM 42.8 °F 35.1 °F 42.8 °F 100% 29.95 in 10.0 mi NNW 16.1 mph 21.9 mph N/A   Overcast
2:55 PM 42.8 °F 33.5 °F 41.0 °F 93% 29.95 in 10.0 mi NNW 23.0 mph 28.8 mph N/A   Overcast
3:15 PM 42.8 °F 34.5 °F 41.0 °F 93% 29.97 in 10.0 mi NNW 18.4 mph 29.9 mph N/A   Overcast
3:35 PM 42.8 °F 34.5 °F 41.0 °F 93% 29.97 in 10.0 mi NNW 18.4 mph 25.3 mph N/A   Overcast
3:55 PM 42.8 °F 34.5 °F 41.0 °F 93% 29.99 in 10.0 mi NNW 18.4 mph 26.5 mph N/A   Overcast
4:35 PM 41.0 °F 31.6 °F 39.2 °F 93% 30.02 in 10.0 mi NNW 20.7 mph 25.3 mph N/A   Overcast
4:55 PM 41.0 °F 32.2 °F 37.4 °F 87% 30.03 in 10.0 mi North 18.4 mph 26.5 mph N/A   Overcast
5:35 PM 41.0 °F 31.6 °F 37.4 °F 87% 30.04 in 10.0 mi North 20.7 mph 26.5 mph N/A   Mostly Cloudy
6:15 PM 41.0 °F 32.5 °F 37.4 °F 87% 30.07 in 7.0 mi North 17.3 mph 25.3 mph N/A   Mostly Cloudy
6:35 PM 41.0 °F 32.2 °F 37.4 °F 87% 30.09 in 10.0 mi North 18.4 mph 26.5 mph N/A   Scattered Clouds
6:55 PM 41.0 °F 34.7 °F 37.4 °F 87% 30.10 in 10.0 mi North 10.4 mph 21.9 mph N/A   Clear
7:15 PM 41.0 °F 35.2 °F 37.4 °F 87% 30.10 in 10.0 mi North 9.2 mph 16.1 mph N/A   Clear
7:35 PM 41.0 °F 34.7 °F 37.4 °F 87% 30.11 in 10.0 mi North 10.4 mph 17.3 mph N/A   Scattered Clouds
8:15 PM 41.0 °F 35.2 °F 37.4 °F 87% 30.13 in 10.0 mi North 9.2 mph - N/A   Mostly Cloudy
8:35 PM 41.0 °F 33.9 °F 37.4 °F 87% 30.13 in 10.0 mi NNW 12.7 mph 16.1 mph N/A   Overcast
8:55 PM 41.0 °F 35.8 °F 37.4 °F 87% 30.13 in 10.0 mi NNW 8.1 mph 16.1 mph N/A   Overcast
9:15 PM 41.0 °F 33.5 °F 37.4 °F 87% 30.13 in 10.0 mi NNW 13.8 mph 17.3 mph N/A   Overcast
10:15 PM 42.8 °F 36.2 °F 33.8 °F 70% 30.14 in 10.0 mi NNW 12.7 mph 24.2 mph N/A   Overcast
10:35 PM 42.8 °F 34.3 °F 33.8 °F 70% 30.14 in 10.0 mi NNW 19.6 mph 28.8 mph N/A   Overcast
10:55 PM 41.0 °F 31.9 °F 32.0 °F 70% 30.14 in 10.0 mi North 19.6 mph 29.9 mph N/A   Overcast
11:15 PM 41.0 °F 32.5 °F 32.0 °F 70% 30.15 in 10.0 mi NNW 17.3 mph 21.9 mph N/A   Overcast
11:35 PM 41.0 °F 33.1 °F 32.0 °F 70% 30.15 in 10.0 mi NNW 15.0 mph 25.3 mph N/A   Overcast
11:55 PM 41.0 °F 31.1 °F 30.2 °F 65% 30.14 in 10.0 mi NNW 23.0 mph 32.2 mph N/A   Scattered Clouds